Year,Month,Day,Hour,Minute,Value (Times are PST for temperature in C)
2014,01,11,08,43,8.00
2014,01,11,08,44,8.00
2014,01,11,08,45,8.10
2014,01,11,08,46,8.10
2014,01,11,08,47,8.10
2014,01,11,08,48,8.10
2014,01,11,08,49,8.10
2014,01,11,08,50,8.10
2014,01,11,08,51,8.10
2014,01,11,08,52,8.10
2014,01,11,08,53,8.10
2014,01,11,08,54,8.10
2014,01,11,08,55,8.10
2014,01,11,08,56,8.10
2014,01,11,08,57,8.10
2014,01,11,08,58,8.10
2014,01,11,08,59,8.20
2014,01,11,09,00,8.20
2014,01,11,09,01,8.20
2014,01,11,09,02,8.20
2014,01,11,09,03,8.20
2014,01,11,09,04,8.20
2014,01,11,09,05,8.20
2014,01,11,09,06,8.20
2014,01,11,09,07,8.20
2014,01,11,09,08,8.10
2014,01,11,09,09,8.10
2014,01,11,09,10,8.10
2014,01,11,09,11,8.10
2014,01,11,09,12,8.00
2014,01,11,09,13,8.00
2014,01,11,09,14,7.90
2014,01,11,09,15,7.90
2014,01,11,09,16,7.80
2014,01,11,09,17,7.80
2014,01,11,09,18,7.80
2014,01,11,09,19,7.80
2014,01,11,09,20,7.80
2014,01,11,09,21,7.70
2014,01,11,09,22,7.70
2014,01,11,09,23,7.70
2014,01,11,09,24,7.70
2014,01,11,09,25,7.70
2014,01,11,09,26,7.60
2014,01,11,09,27,7.60
2014,01,11,09,28,7.60
2014,01,11,09,29,7.50
2014,01,11,09,30,7.50
2014,01,11,09,31,7.50
2014,01,11,09,32,7.40
2014,01,11,09,33,7.40
2014,01,11,09,34,7.40
2014,01,11,09,35,7.40
2014,01,11,09,36,7.40
2014,01,11,09,37,7.40
2014,01,11,09,38,7.40
2014,01,11,09,39,7.40
2014,01,11,09,40,7.40
2014,01,11,09,41,7.40
2014,01,11,09,42,7.40
2014,01,11,11,23,6.90
2014,01,11,11,24,6.90
2014,01,11,11,25,7.00
2014,01,11,11,26,7.00
2014,01,11,11,27,7.00
2014,01,11,11,28,7.10
2014,01,11,11,29,7.10
2014,01,11,11,30,7.10
2014,01,11,11,31,7.10
2014,01,11,11,32,7.10
2014,01,11,11,33,7.10
2014,01,11,11,34,7.10
2014,01,11,11,35,7.20
2014,01,11,11,36,7.20
2014,01,11,11,37,7.20
2014,01,11,11,38,7.20
2014,01,11,11,39,7.30
2014,01,11,11,40,7.30
2014,01,11,11,41,7.30
2014,01,11,11,42,7.30
2014,01,11,11,43,7.30
2014,01,11,11,44,7.30
2014,01,11,11,45,7.30
2014,01,11,11,46,7.40
2014,01,11,11,47,7.40
2014,01,11,11,48,7.40
2014,01,11,11,49,7.40
2014,01,11,11,50,7.40
2014,01,11,11,51,7.40
2014,01,11,11,52,7.50
2014,01,11,11,53,7.50
2014,01,11,11,54,7.60
2014,01,11,11,55,7.60
2014,01,11,11,56,7.60
2014,01,11,11,57,7.60
2014,01,11,11,58,7.60
2014,01,11,11,59,7.70
2014,01,11,12,00,7.70
2014,01,11,12,01,7.70
2014,01,11,12,02,7.70
2014,01,11,12,03,7.60
2014,01,11,12,04,7.60
2014,01,11,12,05,7.60
2014,01,11,12,06,7.60
2014,01,11,12,07,7.60
2014,01,11,12,08,7.60
2014,01,11,12,09,7.60
2014,01,11,12,10,7.60
2014,01,11,12,11,7.60
2014,01,11,12,12,7.60
2014,01,11,12,13,7.60
2014,01,11,12,14,7.60
2014,01,11,12,15,7.60
2014,01,11,12,16,7.60
2014,01,11,12,17,7.60
2014,01,11,12,18,7.60
2014,01,11,12,19,7.60
2014,01,11,12,20,7.60
2014,01,11,12,21,7.60
2014,01,11,12,22,7.60
2014,01,11,12,23,7.60
2014,01,11,12,24,7.60
2014,01,11,12,25,7.60
2014,01,11,12,26,7.60
2014,01,11,12,27,7.60
2014,01,11,12,28,7.60
2014,01,11,12,29,7.60
2014,01,11,12,30,7.60
2014,01,11,12,31,7.60
2014,01,11,12,32,7.60
2014,01,11,12,33,7.60
2014,01,11,12,34,7.60
2014,01,11,12,35,7.60
2014,01,11,12,36,7.60
2014,01,11,12,37,7.60
2014,01,11,12,38,7.60
2014,01,11,12,39,7.60
2014,01,11,12,40,7.60
2014,01,11,12,41,7.60
2014,01,11,12,42,7.60
2014,01,11,12,43,7.60
2014,01,11,12,44,7.60
2014,01,11,12,45,7.60
2014,01,11,12,46,7.60
2014,01,11,12,47,7.70
2014,01,11,12,48,7.60
2014,01,11,12,49,7.60
2014,01,11,12,50,7.60
2014,01,11,12,51,7.60
2014,01,11,12,52,7.60
2014,01,11,12,53,7.60
2014,01,11,12,54,7.60
2014,01,11,12,55,7.50
2014,01,11,12,56,7.50
2014,01,11,12,57,7.50
2014,01,11,12,58,7.40
2014,01,11,12,59,7.40
2014,01,11,13,00,7.40
2014,01,11,13,01,7.40
2014,01,11,13,02,7.40
2014,01,11,13,03,7.30
2014,01,11,13,04,7.30
2014,01,11,13,05,7.30
2014,01,11,13,06,7.30
2014,01,11,13,07,7.30
2014,01,11,13,08,7.30
2014,01,11,13,09,7.30
2014,01,11,13,10,7.30
2014,01,11,13,11,7.20
2014,01,11,13,12,7.20
2014,01,11,13,13,7.20
2014,01,11,13,14,7.20
2014,01,11,13,15,7.20
2014,01,11,13,16,7.20
2014,01,11,13,17,7.20
2014,01,11,13,18,7.20
2014,01,11,13,19,7.20
2014,01,11,13,20,7.20
2014,01,11,13,21,7.20
2014,01,11,13,22,7.20
2014,01,11,13,23,7.20
2014,01,11,13,24,7.20
2014,01,11,13,25,7.10
2014,01,11,13,26,7.10
2014,01,11,13,27,7.10
2014,01,11,13,28,7.10
2014,01,11,13,29,7.10
2014,01,11,13,30,7.10
2014,01,11,13,31,7.10
2014,01,11,13,32,7.10
2014,01,11,13,33,7.10
2014,01,11,13,34,7.10
2014,01,11,13,35,7.10
2014,01,11,13,36,7.10
2014,01,11,13,37,7.10
2014,01,11,13,38,7.10
2014,01,11,13,39,7.10
2014,01,11,13,40,7.10
2014,01,11,13,41,7.10
2014,01,11,13,42,7.10
2014,01,11,13,43,7.00
2014,01,11,13,44,7.00
2014,01,11,13,45,7.10
2014,01,11,13,46,7.00
2014,01,11,13,47,7.00
2014,01,11,13,48,7.00
2014,01,11,13,49,7.00
2014,01,11,13,50,7.00
2014,01,11,13,51,7.00
2014,01,11,13,52,7.00
2014,01,11,13,53,7.00
2014,01,11,13,54,7.00
2014,01,11,13,55,7.00
2014,01,11,13,56,7.00
2014,01,11,13,57,7.00
2014,01,11,13,58,7.00
2014,01,11,13,59,7.00
2014,01,11,14,00,7.00
2014,01,11,14,01,7.00
2014,01,11,14,02,7.00
2014,01,11,14,03,7.00
2014,01,11,14,04,7.00
2014,01,11,14,05,7.00
2014,01,11,14,06,7.00
2014,01,11,14,07,7.10
2014,01,11,14,08,7.10
2014,01,11,14,09,7.10
2014,01,11,14,10,7.10
2014,01,11,14,11,7.10
2014,01,11,14,12,7.10
2014,01,11,14,13,7.20
2014,01,11,14,14,7.20
2014,01,11,14,15,7.20
2014,01,11,14,16,7.20
2014,01,11,14,17,7.20
2014,01,11,14,18,7.20
2014,01,11,14,19,7.20
2014,01,11,14,20,7.20
2014,01,11,14,21,7.20
2014,01,11,14,22,7.30
2014,01,11,14,23,7.30
2014,01,11,14,24,7.30
2014,01,11,14,25,7.30
2014,01,11,14,26,7.30
2014,01,11,14,27,7.30
2014,01,11,14,28,7.30
2014,01,11,14,29,7.30
2014,01,11,14,30,7.30
2014,01,11,14,31,7.30
2014,01,11,14,32,7.30
2014,01,11,14,33,7.30
2014,01,11,14,34,7.30
2014,01,11,14,35,7.20
2014,01,11,14,36,7.20
2014,01,11,14,37,7.20
2014,01,11,14,38,7.30
2014,01,11,14,39,7.30
2014,01,11,14,40,7.30
2014,01,11,14,41,7.30
2014,01,11,14,42,7.30
2014,01,11,14,43,7.40
2014,01,11,14,44,7.40
2014,01,11,14,45,7.40
2014,01,11,14,46,7.40
2014,01,11,14,47,7.40
2014,01,11,14,48,7.40
2014,01,11,14,49,7.40
2014,01,11,14,50,7.40
2014,01,11,14,51,7.40
2014,01,11,14,52,7.40
2014,01,11,14,53,7.40
2014,01,11,14,54,7.30
2014,01,11,14,55,7.30
2014,01,11,14,56,7.30
2014,01,11,14,57,7.30
2014,01,11,14,58,7.30
2014,01,11,14,59,7.30
2014,01,11,15,00,7.30
2014,01,11,15,01,7.30
2014,01,11,15,02,7.30
2014,01,11,15,03,7.30
2014,01,11,15,04,7.30
2014,01,11,15,05,7.30
2014,01,11,15,06,7.30
2014,01,11,15,07,7.30
2014,01,11,15,08,7.30
2014,01,11,15,09,7.30
2014,01,11,15,10,7.30
2014,01,11,15,11,7.40
2014,01,11,15,12,7.40
2014,01,11,15,13,7.40
2014,01,11,15,14,7.40
2014,01,11,15,15,7.40
2014,01,11,15,16,7.40
2014,01,11,15,17,7.40
2014,01,11,15,18,7.40
2014,01,11,15,19,7.40
2014,01,11,15,20,7.40
2014,01,11,15,21,7.40
2014,01,11,15,22,7.40
2014,01,11,15,23,7.40
2014,01,11,15,24,7.40
2014,01,11,15,25,7.40
2014,01,11,15,26,7.40
2014,01,11,15,27,7.40
2014,01,11,15,28,7.40
2014,01,11,15,29,7.40
2014,01,11,15,30,7.40
2014,01,11,15,31,7.40
2014,01,11,15,32,7.40
2014,01,11,15,33,7.30
2014,01,11,15,34,7.30
2014,01,11,15,35,7.30
2014,01,11,15,36,7.20
2014,01,11,15,37,7.20
2014,01,11,15,38,7.10
2014,01,11,15,39,7.10
2014,01,11,15,40,7.00
2014,01,11,15,41,7.00
2014,01,11,15,42,6.90
2014,01,11,15,43,6.90
2014,01,11,15,44,6.90
2014,01,11,15,45,7.00
2014,01,11,15,46,7.00
2014,01,11,15,47,7.10
2014,01,11,15,48,7.10
2014,01,11,15,49,7.20
2014,01,11,15,50,7.20
2014,01,11,15,51,7.20
2014,01,11,15,52,7.20
2014,01,11,15,53,7.20
2014,01,11,15,54,7.20
2014,01,11,15,55,7.20
2014,01,11,15,56,7.20
2014,01,11,15,57,7.20
2014,01,11,15,58,7.20
2014,01,11,15,59,7.20
2014,01,11,16,00,7.20
2014,01,11,16,01,7.30
2014,01,11,16,02,7.30
2014,01,11,16,03,7.30
2014,01,11,16,04,7.30
2014,01,11,16,05,7.30
2014,01,11,16,06,7.30
2014,01,11,16,07,7.30
2014,01,11,16,08,7.30
2014,01,11,16,09,7.30
2014,01,11,16,10,7.30
2014,01,11,16,11,7.40
2014,01,11,16,12,7.40
2014,01,11,16,13,7.40
2014,01,11,16,14,7.40
2014,01,11,16,15,7.40
2014,01,11,16,16,7.40
2014,01,11,16,17,7.50
2014,01,11,16,18,7.50
2014,01,11,16,19,7.50
2014,01,11,16,20,7.50
2014,01,11,16,21,7.50
2014,01,11,16,22,7.50
2014,01,11,16,23,7.50
2014,01,11,16,24,7.40
2014,01,11,16,25,7.40
2014,01,11,16,26,7.40
2014,01,11,16,27,7.40
2014,01,11,16,28,7.30
2014,01,11,16,29,7.30
2014,01,11,16,30,7.30
2014,01,11,16,31,7.30
2014,01,11,16,32,7.30
2014,01,11,16,33,7.40
2014,01,11,16,34,7.40
2014,01,11,16,35,7.40
2014,01,11,16,36,7.40
2014,01,11,16,37,7.40
2014,01,11,16,38,7.40
2014,01,11,16,39,7.40
2014,01,11,16,40,7.40
2014,01,11,16,41,7.40
2014,01,11,16,42,7.40
2014,01,11,16,43,7.30
2014,01,11,16,44,7.30
2014,01,11,16,45,7.30
2014,01,11,16,46,7.20
2014,01,11,16,47,7.20
2014,01,11,16,48,7.20
2014,01,11,16,49,7.20
2014,01,11,16,50,7.20
2014,01,11,16,51,7.20
2014,01,11,16,52,7.20
2014,01,11,16,53,7.20
2014,01,11,16,54,7.20
2014,01,11,16,55,7.20
2014,01,11,16,56,7.20
2014,01,11,16,57,7.20
2014,01,11,16,58,7.20
2014,01,11,16,59,7.20
2014,01,11,17,00,7.30
2014,01,11,17,01,7.30
2014,01,11,17,02,7.20
2014,01,11,17,03,7.20
2014,01,11,17,04,7.20
2014,01,11,17,05,7.20
2014,01,11,17,06,7.20
2014,01,11,17,07,7.20
2014,01,11,17,08,7.30
2014,01,11,17,09,7.30
2014,01,11,17,10,7.30
2014,01,11,17,11,7.30
2014,01,11,17,12,7.30
2014,01,11,17,13,7.30
2014,01,11,17,14,7.30
2014,01,11,17,15,7.30
2014,01,11,17,16,7.40
2014,01,11,17,17,7.40
2014,01,11,17,18,7.40
2014,01,11,17,19,7.30
2014,01,11,17,20,7.30
2014,01,11,17,21,7.30
2014,01,11,17,22,7.30
2014,01,11,17,23,7.30
2014,01,11,17,24,7.30
2014,01,11,17,25,7.30
2014,01,11,17,26,7.30
2014,01,11,17,27,7.30
2014,01,11,17,28,7.30
2014,01,11,17,29,7.30
